Regional Weather Roundup
Issued by NWS

Home | Current Version | Previous Version | Text Only | Print | Product List | Glossary Off
Versions: 1 2 3 4 5 6 7 8 9 10 11 12 13 14 15 16 17 18 19 20 21 22 23 24 25 26 27 28 29 30 31 32 33 34 35 36 37 38 39 40 41 42 43 44 45 46 47 48 49 50

000
ASUS43 KLSX 070457
RWRMO

WEATHER SUMMARY FOR MISSOURI
NATIONAL WEATHER SERVICE SPRINGFIELD MO
1100 PM CST SAT FEB 06 2016

NOTE: "FAIR" INDICATES FEW OR NO CLOUDS BELOW 12,000 FEET WITH NO
       SIGNIFICANT WEATHER AND/OR OBSTRUCTIONS TO VISIBILITY.
       CURRENT SKY AND/OR WEATHER CONDITIONS ARE NOT AVAILABLE FOR
       CHILLICOTHE AND FARMINGTON.

MOZ001>031-035>038-043-044-053-054-070600-
...NORTHERN AND WESTERN MISSOURI...

CITY           SKY/WX    TMP DP  RH WIND       PRES   REMARKS
KANSAS CTY INT PTCLDY    41  28  60 SW17      30.07F
LEE`S SUMMIT   PTCLDY    40  27  59 SW14      30.09F
ST JOSEPH      CLOUDY    38  28  67 S9        30.06S
CHILLICOTHE      N/A     39  30  70 S7        30.08F

$$
MOZ066>068-077>081-088>096-101>105-070600-
...SOUTHWEST MISSOURI...

CITY           SKY/WX    TMP DP  RH WIND       PRES   REMARKS
SPRINGFIELD    PTCLDY    35  27  72 SW7       30.18F WCI  29
JOPLIN         CLEAR     37  27  67 SW7       30.21S

$$
MOZ032>034-039>042-045>050-055>058-069>072-070600-
...CENTRAL MISSOURI...

CITY           SKY/WX    TMP DP  RH WIND       PRES   REMARKS
COLUMBIA       NOT AVBL
JEFFERSON CITY CLOUDY    41  29  62 CALM      30.16F
ROLLA          CLEAR     35  26  69 S8        30.15F WCI  29
SEDALIA        PTCLDY    39  28  64 S10       30.14F

$$
MOZ051-052-059>065-070600-
...EAST CENTRAL MISSOURI...

CITY           SKY/WX    TMP DP  RH WIND       PRES   REMARKS
ST LOUIS INTL  CLEAR     44  26  49 SW9       30.16F

$$
MOZ072>076-082>087-097>100-106>115-070600-
...SOUTH CENTRAL AND SOUTHEAST MISSOURI...

CITY           SKY/WX    TMP DP  RH WIND       PRES   REMARKS
CAPE GIRARDEAU CLEAR     38  22  52 CALM      30.25S
POPLAR BLUFF   CLEAR     38  24  57 SW3       30.26S

$$


USA.gov is the U.S. government's official web portal to all federal, state and local government web resources and services.